{"data":{"norad_id":81833,"intl_designator":"","name":"UNKNOWN","alt_names":[],"object_type":"UNKNOWN","status":"UNKNOWN","operator":null,"country":null,"launch_date":null,"launch_site_code":null,"launch_vehicle":null,"mission":null,"orbit_class":"UNKNOWN","rcs_meters":null,"size_class":null,"mass_kg":null,"dimensions":null,"purposes":[],"wikipedia_slug":null,"has_3d_model":false,"image_url":null,"decayed_at":null,"tle_current":{"epoch":"2026-05-24T01:30:00.050976Z","epoch_age_seconds":156360,"freshness":"FRESH","line1":"1 81833U          26144.06250059  .00000199  00000+0  69638-3 0  9990","line2":"2 81833  90.2432   6.5108 0026050 324.8646  35.0754 12.93796414473500","mean_motion":12.93796414,"eccentricity":0.002605,"inclination_deg":90.2432,"raan_deg":6.5108,"arg_perigee_deg":324.8646,"mean_anomaly_deg":35.0754,"bstar":0.00069638,"rev_number":47350,"period_min":111.30035486402,"perigee_km":1266.5269540585,"apogee_km":1306.459678005,"semimajor_km":7664.6303160318,"source":"CELESTRAK","updated_at":"2026-05-25T13:38:11.085338Z"}}}